Time_in_sec,Latitude,Longitude,Altitude,Nbsat_max_qualitysignal,Nbsat_locked,valid_data
1314272199.50567746,47.37564087,8.55014610,429.91561890,0,5,1
1314272302.35259461,47.37548065,8.55018044,468.18835449,2,5,1
1314272302.40075064,47.37548065,8.55018044,468.12796021,2,5,1
1314272302.45248747,47.37548065,8.55018044,468.06750488,2,5,1
1314272302.50152731,47.37548065,8.55018139,467.77160645,2,5,1
1314272302.55251002,47.37548065,8.55018234,467.70700073,2,5,1
1314272302.60060525,47.37548065,8.55018234,467.64559937,2,5,1
1314272302.65349364,47.37548065,8.55018234,467.58416748,2,5,1
1314272302.69352031,47.37548065,8.55018234,467.52273560,2,5,1
1314272302.75254083,47.37548065,8.55018234,467.47357178,2,5,1
1314272302.80046916,47.37548065,8.55018330,467.16424561,2,5,1
1314272302.85245776,47.37548065,8.55018330,467.10186768,2,5,1
1314272302.90238285,47.37548065,8.55018425,467.03948975,2,5,1
1314272302.95350885,47.37548065,8.55018425,466.97705078,2,5,1
1314272303.00150704,47.37548065,8.55018425,466.68344116,2,5,1
1314272303.05049372,47.37548065,8.55018520,466.61972046,2,5,1
1314272303.10479927,47.37548065,8.55018616,466.55639648,2,5,1
1314272303.15248418,47.37548065,8.55018616,466.49301147,2,5,1
1314272303.20192051,47.37548065,8.55018616,466.42962646,2,5,1
1314272303.25360274,47.37548065,8.55018711,466.15225220,2,5,1
1314272303.30270004,47.37548065,8.55018711,466.08807373,2,5,1
1314272303.35348868,47.37548065,8.55018711,466.02389526,2,5,1
1314272303.40557861,47.37548065,8.55018711,465.95962524,2,5,1
1314272303.45455360,47.37548065,8.55018711,465.89532471,2,5,1
1314272303.50487280,47.37548065,8.55018806,465.62725830,2,5,1
1314272303.55348396,47.37547684,8.55018902,465.58224487,2,5,1
1314272303.60446668,47.37547684,8.55018902,465.51730347,2,5,1
1314272303.65258288,47.37547684,8.55018902,465.45236206,2,5,1
1314272303.69424987,47.37547684,8.55018902,465.38735962,2,5,1
1314272303.75359106,47.37547684,8.55018902,465.33535767,2,5,1
1314272303.80453682,47.37547684,8.55018806,465.07489014,2,5,1
1314272303.85646105,47.37547684,8.55018806,465.00918579,2,5,1
1314272303.90592909,47.37547684,8.55018806,464.94345093,2,5,1
1314272303.94161701,47.37547684,8.55018902,464.87768555,2,5,1
1314272304.00445342,47.37547684,8.55018902,464.64843750,2,5,1
1314272304.05360126,47.37547684,8.55018806,464.56939697,2,5,1
1314272304.10196924,47.37547684,8.55018806,464.50292969,2,5,1
1314272304.15349674,47.37547684,8.55018806,464.43640137,2,5,1
1314272304.20146728,47.37547684,8.55018806,464.36987305,2,5,1
1314272304.25386047,47.37547684,8.55018806,464.13223267,2,5,1
1314272304.30558586,47.37548065,8.55018711,464.06738281,2,5,1
1314272304.35354733,47.37548065,8.55018711,464.00021362,2,5,1
1314272304.40446997,47.37548065,8.55018711,463.93298340,2,5,1
1314272304.45257902,47.37548065,8.55018711,463.86575317,2,5,1
1314272304.50444841,47.37548065,8.55018806,463.63616943,2,5,1
1314272304.55248260,47.37548065,8.55018711,463.57449341,2,5,1
1314272304.60159540,47.37548065,8.55018711,463.50665283,2,5,1
1314272304.65291357,47.37548065,8.55018711,463.43878174,2,5,1
1314272304.69364071,47.37548065,8.55018711,463.37088013,2,5,1
1314272304.75257587,47.37548065,8.55018711,463.31652832,2,5,1
1314272304.80170536,47.37548065,8.55018711,463.09240723,2,5,1
1314272304.85363603,47.37548065,8.55018711,463.02392578,2,5,1
1314272304.90166426,47.37548065,8.55018711,462.95544434,2,5,1
1314272304.95247984,47.37548065,8.55018711,462.88693237,2,5,1
1314272305.00457788,47.37548065,8.55018711,462.67477417,2,5,1
1314272305.05445123,47.37548065,8.55018616,462.60351562,2,5,1
1314272305.10151649,47.37548065,8.55018616,462.53439331,2,5,1
1314272305.15370202,47.37548065,8.55018616,462.46527100,2,5,1
1314272305.20447922,47.37548065,8.55018616,462.39608765,2,5,1
1314272305.25248313,47.37548065,8.55018616,462.19091797,2,5,1
1314272305.30154729,47.37548065,8.55018616,462.13055420,2,5,1
1314272305.35244536,47.37548065,8.55018616,462.06082153,2,5,1
1314272305.40059114,47.37548065,8.55018616,461.99105835,2,5,1
1314272305.45356965,47.37548065,8.55018616,461.92126465,2,5,1
1314272305.50152636,47.37548065,8.55018616,461.72302246,2,5,1
1314272305.55258727,47.37548065,8.55018806,461.66119385,2,5,1
1314272305.60045576,47.37548065,8.55018806,461.59091187,2,5,1
1314272305.65246010,47.37548065,8.55018806,461.52062988,2,5,1
1314272305.70160532,47.37548065,8.55018806,461.45028687,2,5,1
1314272305.75244904,47.37548065,8.55018806,461.25860596,2,5,1
1314272305.80154419,47.37547684,8.55018902,461.19952393,2,5,1
1314272305.85042262,47.37547684,8.55018902,461.12869263,2,5,1
1314272305.90054369,47.37547684,8.55018902,461.05786133,2,5,1
1314272305.94161844,47.37547684,8.55018902,460.98699951,2,5,1
1314272306.00146770,47.37547684,8.55018902,460.81588745,2,5,1
1314272306.05360103,47.37547684,8.55018997,460.74853516,2,5,1
1314272306.10196352,47.37547684,8.55018997,460.67730713,2,5,1
1314272306.14144683,47.37547684,8.55018997,460.60604858,2,5,1
1314272306.20159268,47.37547684,8.55018997,460.54898071,2,5,1
1314272306.25573993,47.37547684,8.55019093,460.36007690,2,5,1
1314272306.30147243,47.37547684,8.55019188,460.30419922,2,5,1
1314272306.35250235,47.37547684,8.55019188,460.23257446,2,5,1
1314272306.40445781,47.37547684,8.55019188,460.16088867,2,5,1
1314272306.45252419,47.37547684,8.55019188,460.08914185,2,5,1
1314272306.50457120,47.37547684,8.55019188,459.93273926,2,5,1
1314272306.55245376,47.37547684,8.55019093,459.88140869,2,5,1
1314272306.60485721,47.37547684,8.55019188,459.80944824,2,5,1
1314272306.65247822,47.37547684,8.55019188,459.73745728,2,5,1
1314272306.69360590,47.37547684,8.55019188,459.66540527,2,5,1
1314272306.75359559,47.37547684,8.55019188,459.60772705,2,5,1
1314272306.80447435,47.37547302,8.55019188,459.47103882,2,5,1
1314272306.85359979,47.37547302,8.55019188,459.39880371,2,5,1
1314272306.90443993,47.37547302,8.55019188,459.32650757,2,5,1
1314272306.95246005,47.37547302,8.55019188,459.25418091,2,5,1
1314272307.00462723,47.37547302,8.55019188,459.12747192,2,5,1
1314272307.04842854,47.37547684,8.55019283,459.06512451,2,5,1
1314272307.10493708,47.37547684,8.55019283,459.00708008,2,5,1
1314272307.15338564,47.37547684,8.55019283,458.92001343,2,5,1
1314272307.20447302,47.37547302,8.55019283,458.84741211,2,5,1
1314272307.25392556,47.37547302,8.55019283,458.73760986,2,5,1
1314272307.30195284,47.37547684,8.55019474,458.68060303,2,5,1
1314272307.35358572,47.37547302,8.55019474,458.60787964,2,5,1
1314272307.40444756,47.37547302,8.55019474,458.53515625,2,5,1
1314272307.45247722,47.37547302,8.55019474,458.46237183,2,5,1
1314272307.50174880,47.37547302,8.55019474,458.37091064,2,5,1
1314272307.55351138,47.37547302,8.55019569,458.31848145,2,5,1
1314272307.60186052,47.37547302,8.55019569,458.24572754,2,5,1
1314272307.65384221,47.37547302,8.55019569,458.17291260,2,5,1
1314272307.70170355,47.37547302,8.55019569,458.10009766,2,5,1
1314272307.75374174,47.37547302,8.55019665,458.02148438,2,5,1
1314272307.80545926,47.37547302,8.55019855,457.96563721,2,5,1
1314272307.85246515,47.37547302,8.55019855,457.89282227,2,5,1
1314272307.90160179,47.37547302,8.55019855,457.81997681,2,5,1
1314272307.94547224,47.37547302,8.55019855,457.74707031,2,5,1
1314272308.00457215,47.37547302,8.55019855,457.68872070,2,5,1
1314272308.05359745,47.37547684,8.55019855,457.61840820,2,5,1
1314272308.10157657,47.37547684,8.55019951,457.54553223,2,5,1
1314272308.15248179,47.37547684,8.55019951,457.47265625,2,5,1
1314272308.20447636,47.37547684,8.55019951,457.39971924,2,5,1
1314272308.25393605,47.37547684,8.55019951,457.32675171,2,5,1
1314272308.30147147,47.37547684,8.55019665,457.27581787,2,5,1
1314272308.35358858,47.37547684,8.55019665,457.20297241,2,5,1
1314272308.40448141,47.37547684,8.55019665,457.13009644,2,5,1
1314272308.45360494,47.37547684,8.55019665,457.05718994,2,5,1
1314272308.50156736,47.37547684,8.55019665,456.98428345,2,5,1
1314272308.55350089,47.37548065,8.55019379,456.93875122,2,5,1
1314272308.60157180,47.37548065,8.55019379,456.86593628,2,5,1
1314272308.65658808,47.37548065,8.55019379,456.79309082,2,5,1
1314272308.70064139,47.37548065,8.55019379,456.72021484,2,5,1
1314272308.75346398,47.37548065,8.55019379,456.64730835,2,5,1
1314272308.80080080,47.37548065,8.55019188,456.61550903,2,5,1
1314272308.85356116,47.37548065,8.55019188,456.54275513,2,5,1
1314272308.90145707,47.37548065,8.55019188,456.46994019,2,5,1
1314272308.94446063,47.37548065,8.55019188,456.39712524,2,5,1
1314272309.00050712,47.37548065,8.55019188,456.36654663,2,5,1
1314272309.05411768,47.37548065,8.55018997,456.30673218,2,5,1
1314272309.10444665,47.37548065,8.55018997,456.23413086,2,5,1
1314272309.15360427,47.37548065,8.55018902,456.16149902,2,5,1
1314272309.20177817,47.37548065,8.55018902,456.08880615,2,5,1
1314272309.25249243,47.37548065,8.55018902,456.01608276,2,5,1
1314272309.30145597,47.37548447,8.55018997,455.99386597,2,5,1
1314272309.35254383,47.37548447,8.55018997,455.92132568,2,5,1
1314272309.40563536,47.37548447,8.55018902,455.84875488,2,5,1
1314272309.45659924,47.37548447,8.55018902,455.77612305,2,5,1
1314272309.50515652,47.37548447,8.55018902,455.70349121,2,5,1
1314272309.55248761,47.37548447,8.55018711,455.68014526,2,5,1
1314272309.60444927,47.37548447,8.55018711,455.60760498,2,5,1
1314272309.65360594,47.37548447,8.55018711,455.53506470,2,5,1
1314272309.70146871,47.37548828,8.55018711,455.46249390,2,5,1
1314272309.74244094,47.37548828,8.55018711,455.38986206,2,5,1
1314272309.80162144,47.37548828,8.55018806,455.40890503,2,5,1
1314272309.85492492,47.37548828,8.55018806,455.32214355,2,5,1
1314272309.90160871,47.37548828,8.55018806,455.24984741,2,5,1
1314272309.94104815,47.37548828,8.55018806,455.17752075,2,5,1
1314272310.00455165,47.37548828,8.55018806,455.17126465,2,5,1
1314272310.05258417,47.37548828,8.55018711,455.10180664,2,5,1
1314272310.10217476,47.37548828,8.55018711,455.02969360,2,5,1
1314272310.15253353,47.37548828,8.55018711,454.95755005,2,5,1
1314272310.20165443,47.37548828,8.55018616,454.88534546,2,5,1
1314272310.25387597,47.37548828,8.55018520,454.88507080,2,5,1
1314272310.30166364,47.37548828,8.55018520,454.81311035,2,5,1
1314272310.35359931,47.37548828,8.55018520,454.74108887,2,5,1
1314272310.40445232,47.37548828,8.55018520,454.66903687,2,5,1
1314272310.45258045,47.37548828,8.55018520,454.59692383,2,5,1
1314272310.50198460,47.37549210,8.55018520,454.60681152,2,5,1
1314272310.55249262,47.37549210,8.55018520,454.53494263,2,5,1
1314272310.60165238,47.37549210,8.55018425,454.46307373,2,5,1
1314272310.65650725,47.37549210,8.55018425,454.39114380,2,5,1
1314272310.70446014,47.37549210,8.55018425,454.31918335,2,5,1
1314272310.75244021,47.37549210,8.55018520,454.34951782,2,5,1
1314272310.80096745,47.37549210,8.55018520,454.27795410,2,5,1
1314272310.85247016,47.37549210,8.55018425,454.20635986,2,5,1
1314272310.90171003,47.37549210,8.55018425,454.13470459,2,5,1
1314272310.94445586,47.37549210,8.55018425,454.06301880,2,5,0
1314272311.00458217,47.37549210,8.55018425,454.00567627,2,5,0
1314272311.05646300,47.37549210,8.55018425,453.91961670,2,5,0
1314272311.10446668,47.37549210,8.55018425,453.84786987,2,5,0
1314272311.15263391,47.37549210,8.55018330,453.77609253,2,5,0
1314272311.20458150,47.37549210,8.55018330,453.70428467,2,5,0
1314272311.25258398,47.37549210,8.55018330,453.63244629,2,5,0
1314272311.30199838,47.37549210,8.55018330,453.56057739,2,5,0
1314272311.35258484,47.37549210,8.55018330,453.48870850,2,5,0
1314272311.40446663,47.37549210,8.55018330,453.41680908,2,5,1
1314272311.45662379,47.37549210,8.55018234,453.34487915,2,5,1
1314272311.50160336,47.37549210,8.55018234,453.40002441,2,5,1
1314272311.55260754,47.37549210,8.55018520,453.34918213,2,5,1
1314272311.60046840,47.37549210,8.55018425,453.27774048,2,5,1
1314272311.65346742,47.37549210,8.55018425,453.20623779,2,5,1
1314272311.70156598,47.37549210,8.55018425,453.13473511,2,5,1
1314272311.75247979,47.37549210,8.55018425,453.20141602,2,5,1
1314272311.80053496,47.37549591,8.55018520,453.15356445,2,5,1
1314272311.85381603,47.37549591,8.55018520,453.08258057,2,5,1
1314272311.90048790,47.37549591,8.55018520,453.01153564,2,5,1
1314272311.94152308,47.37549591,8.55018425,452.94046021,2,5,1
1314272312.00093412,47.37549591,8.55018425,453.03427124,2,5,1
1314272312.05250454,47.37549591,8.55018425,452.97463989,2,5,1
1314272312.10259104,47.37549591,8.55018425,452.90414429,2,5,1
1314272312.15409207,47.37549973,8.55018330,452.83361816,2,5,1
1314272312.20444322,47.37549973,8.55018330,452.76306152,2,5,1
1314272312.25243878,47.37549973,8.55018330,452.69247437,2,5,1
1314272312.30545855,47.37549973,8.55018234,452.79751587,2,5,1
1314272312.35246754,47.37549973,8.55018234,452.72750854,2,5,1
1314272312.40445256,47.37549973,8.55018234,452.65747070,2,5,1
1314272312.45245194,47.37549973,8.55018234,452.58737183,2,5,1
1314272312.50246596,47.37549973,8.55018234,452.51727295,2,5,1
1314272312.55244827,47.37550354,8.55018330,452.63076782,2,5,1
1314272312.60445857,47.37550354,8.55018330,452.56124878,2,5,1
1314272312.65247059,47.37550354,8.55018330,452.49172974,2,5,1
1314272312.70156193,47.37550354,8.55018330,452.42218018,2,5,1
1314272312.75245309,47.37550354,8.55018330,452.35260010,2,5,1
1314272312.80485702,47.37549973,8.55018425,452.50045776,2,5,1
1314272312.85257721,47.37549973,8.55018425,452.43170166,2,5,1
1314272312.90160704,47.37550354,8.55018425,452.36285400,2,5,1
1314272312.95247293,47.37550354,8.55018425,452.29400635,2,5,1
1314272313.00459790,47.37550354,8.55018425,452.42050171,2,5,1
1314272313.05538774,47.37550354,8.55018425,452.37326050,2,5,1
1314272313.10154033,47.37550354,8.55018425,452.30508423,2,5,1
1314272313.15350056,47.37550354,8.55018330,452.23687744,2,5,1
1314272313.20449734,47.37550354,8.55018330,452.16864014,2,5,1
1314272313.25250840,47.37550354,8.55018330,452.10037231,2,5,1
1314272313.30190396,47.37550354,8.55018520,452.26818848,2,5,1
1314272313.35360074,47.37550354,8.55018520,452.20077515,2,5,1
1314272313.40539932,47.37550354,8.55018520,452.13330078,2,5,1
1314272313.45392084,47.37550354,8.55018520,452.06582642,2,5,1
1314272313.50544643,47.37550354,8.55018520,452.22338867,2,5,1
1314272313.55349207,47.37550354,8.55018806,452.20318604,2,5,1
1314272313.60446525,47.37550354,8.55018806,452.13671875,2,5,1
1314272313.65330696,47.37550354,8.55018806,452.07022095,2,5,1
1314272313.69378471,47.37550354,8.55018806,452.00369263,2,5,1
1314272313.75257540,47.37550354,8.55018806,451.95043945,2,5,1
1314272313.80151343,47.37550354,8.55018902,452.15823364,2,5,1
1314272313.85378885,47.37550354,8.55018902,452.09277344,2,5,1
1314272313.90155673,47.37550354,8.55018902,452.02728271,2,5,1
1314272313.94159698,47.37550354,8.55018902,451.96176147,2,5,1
1314272314.00445890,47.37550354,8.55018902,452.16265869,0,5,1
1314272314.05258322,47.37550735,8.55018997,452.12759399,0,5,1
1314272314.10150623,47.37550735,8.55018997,452.06314087,0,5,1
1314272314.15246844,47.37550735,8.55018997,451.99865723,0,5,1
1314272314.20155835,47.37550735,8.55018997,451.93411255,0,5,1
1314272314.25655270,47.37550735,8.55018997,452.13006592,0,5,1
1314272314.30504799,47.37550735,8.55018997,452.09146118,0,5,1
1314272314.35364223,47.37550735,8.55018997,452.02786255,0,5,1
1314272314.40048385,47.37550735,8.55018997,451.96423340,0,5,1
1314272314.45247436,47.37550735,8.55018997,451.90057373,0,5,1
1314272314.50154638,47.37550735,8.55018997,452.09463501,0,5,1
1314272314.55248117,47.37550735,8.55019093,452.04040527,0,5,1
1314272314.60059595,47.37550735,8.55019093,451.97760010,0,5,1
1314272314.65648174,47.37550735,8.55019093,451.91473389,0,5,1
1314272314.70061398,47.37550735,8.55019188,451.85186768,0,5,1
1314272314.75358510,47.37550735,8.55019188,452.04888916,0,5,1
1314272314.80051351,47.37550735,8.55019283,452.00976562,0,5,1
1314272314.85247684,47.37550735,8.55019283,451.94781494,0,5,1
1314272314.90152264,47.37550735,8.55019379,451.88586426,0,5,1
1314272314.95436001,47.37550735,8.55019379,451.82385254,0,5,1
1314272315.00150061,47.37550735,8.55019379,452.02386475,0,5,1
1314272315.05594802,47.37550735,8.55019474,451.98583984,0,5,1
1314272315.10159826,47.37550735,8.55019474,451.92477417,0,5,1
1314272315.15289092,47.37550735,8.55019474,451.86367798,0,5,1
1314272315.20146513,47.37550735,8.55019474,451.80255127,0,5,1
1314272315.25359559,47.37550735,8.55019569,452.00701904,0,5,1
1314272315.30147433,47.37550735,8.55019569,451.97463989,0,5,1
1314272315.35246038,47.37550735,8.55019569,451.91452026,0,5,1
1314272315.40160680,47.37550735,8.55019569,451.85433960,0,5,1
1314272315.45422816,47.37550735,8.55019569,451.79415894,0,5,1
1314272315.50117588,47.37550735,8.55019665,452.00421143,0,5,1
1314272315.55348897,47.37550735,8.55019665,451.96838379,0,5,1
1314272315.59243226,47.37550735,8.55019665,451.90914917,0,5,1
1314272315.65352440,47.37550735,8.55019665,451.86175537,0,5,1
1314272315.69351172,47.37550735,8.55019665,451.79061890,0,5,1
1314272315.75257468,47.37550735,8.55019665,451.74319458,0,5,1
1314272315.80159521,47.37550735,8.55019665,451.97250366,0,5,1
1314272315.85463786,47.37550735,8.55019665,451.91424561,0,5,1
1314272315.90561795,47.37550735,8.55019665,451.85598755,0,5,1
1314272315.94447613,47.37550735,8.55019760,451.79766846,0,5,1
1314272316.00545645,47.37550735,8.55019760,452.02166748,0,5,1
1314272316.05374837,47.37550735,8.55019665,451.97897339,0,5,1
1314272316.10169768,47.37550735,8.55019665,451.92163086,0,5,1
1314272316.15253377,47.37550735,8.55019665,451.86422729,0,5,1
1314272316.20475674,47.37550735,8.55019665,451.80676270,0,5,1
1314272316.25635910,47.37550735,8.55019760,452.01943970,0,5,1
1314272316.30468416,47.37550735,8.55019665,451.99203491,0,5,1
1314272316.35249996,47.37550735,8.55019665,451.93563843,0,5,1
1314272316.40462160,47.37550735,8.55019665,451.87918091,0,5,1
1314272316.45258021,47.37550735,8.55019760,451.82269287,0,5,1
1314272316.50180387,47.37550735,8.55019760,452.05407715,0,5,1
1314272316.55245304,47.37550735,8.55019665,452.03567505,0,5,1
1314272316.60160542,47.37550735,8.55019665,451.98034668,0,5,1
1314272316.65644813,47.37550735,8.55019665,451.92495728,0,5,1
1314272316.70450282,47.37550735,8.55019665,451.86953735,0,5,1
1314272316.75248504,47.37550735,8.55019760,451.81405640,0,5,1
1314272316.80550671,47.37550735,8.55019665,452.10140991,0,5,1
1314272316.85259676,47.37550735,8.55019665,452.04714966,0,5,1
1314272316.90165019,47.37550735,8.55019760,451.99285889,0,5,1
1314272316.94148636,47.37550735,8.55019760,451.93850708,0,5,1
1314272317.00450802,47.37550735,8.55019760,451.89501953,0,5,1
1314272317.05604434,47.37550735,8.55019665,452.19281006,0,5,1
1314272317.10446262,47.37550735,8.55019665,452.13970947,0,5,1
1314272317.15259075,47.37550735,8.55019665,452.08660889,0,5,1
1314272317.20447111,47.37550735,8.55019665,452.03341675,0,5,1
1314272317.25275230,47.37550735,8.55019665,452.33169556,0,5,1
1314272317.30162191,47.37550735,8.55019665,452.30960083,0,5,1
1314272317.35248208,47.37550735,8.55019665,452.25772095,0,5,1
1314272317.40151191,47.37550735,8.55019665,452.20584106,0,5,1
1314272317.44615769,47.37550735,8.55019665,452.15390015,0,5,1
1314272317.50448561,47.37550735,8.55019665,452.11236572,0,5,1
1314272317.55243993,47.37551117,8.55019665,452.45907593,0,5,1
1314272317.60480618,47.37551117,8.55019665,452.40859985,0,5,1
1314272317.65243936,47.37551117,8.55019665,452.35809326,0,5,1
1314272317.69351721,47.37551117,8.55019665,452.30752563,0,5,1
1314272317.75262523,47.37551117,8.55019665,452.26702881,0,5,1
1314272317.80059648,47.37551117,8.55019665,452.62991333,0,5,1
1314272317.85456800,47.37551117,8.55019665,452.58081055,0,5,1
1314272317.90168428,47.37551117,8.55019665,452.53170776,0,5,1
1314272317.94150472,47.37551117,8.55019665,452.48254395,0,5,1
1314272318.00046301,47.37551117,8.55019665,452.44320679,0,5,1
1314272318.05375385,47.37551117,8.55019569,452.81210327,0,5,1
1314272318.10158849,47.37551117,8.55019569,452.76440430,0,5,1
1314272318.15251017,47.37551117,8.55019569,452.71664429,0,5,1
1314272318.20460248,47.37551117,8.55019569,452.66888428,0,5,1
1314272318.25661063,47.37551117,8.55019569,453.03372192,0,5,1
1314272318.30468369,47.37551117,8.55019474,453.01678467,0,5,1
1314272318.35248876,47.37551117,8.55019474,452.97052002,0,5,1
1314272318.40149164,47.37551117,8.55019474,452.92422485,0,5,1
1314272318.44160748,47.37551117,8.55019474,452.87789917,0,5,1
1314272318.50191689,47.37551117,8.55019474,452.84078979,0,5,1
1314272318.55250168,47.37551117,8.55019283,453.23815918,0,5,1
1314272318.60460830,47.37551117,8.55019283,453.19338989,0,5,1
1314272318.65379882,47.37551117,8.55019283,453.14855957,0,5,1
1314272318.69360662,47.37551117,8.55019283,453.10366821,0,5,1
1314272318.75247025,47.37551117,8.55019283,453.06777954,0,5,1
1314272318.80444884,47.37551117,8.55019188,453.45980835,0,5,1
1314272318.85360098,47.37551117,8.55019188,453.41644287,0,5,1
1314272318.90209794,47.37551117,8.55019188,453.37304688,0,5,1
1314272318.94458151,47.37551117,8.55019188,453.32965088,0,5,1
1314272319.00464654,47.37551117,8.55019188,453.29489136,0,5,1
1314272319.05630469,47.37551117,8.55018997,453.71911621,0,5,1
1314272319.10450935,47.37551117,8.55018997,453.67739868,0,5,1
1314272319.15257955,47.37551117,8.55018997,453.63562012,0,5,1
1314272319.20159173,47.37551117,8.55018997,453.59384155,0,5,1
1314272319.25351715,47.37551117,8.55018997,453.99099731,0,5,1
1314272319.30195260,47.37551117,8.55018997,453.97869873,0,5,1
1314272319.35397148,47.37551117,8.55018997,453.93847656,0,5,1
1314272319.40153050,47.37551117,8.55018997,453.89819336,0,5,1
1314272319.45402288,47.37551117,8.55018997,453.85791016,0,5,1
1314272319.50562310,47.37551117,8.55018902,454.26019287,0,5,1
1314272319.55362511,47.37551117,8.55019093,454.24887085,0,5,1
1314272319.60450363,47.37551117,8.55019093,454.21017456,0,5,1
1314272319.65361261,47.37551117,8.55019093,454.17144775,0,5,1
1314272319.69386959,47.37551117,8.55019093,454.13269043,0,5,1
1314272319.75359964,47.37551117,8.55019093,454.10165405,0,5,1
1314272319.80464911,47.37551117,8.55019093,454.52462769,0,5,1
1314272319.85070825,47.37551117,8.55019093,454.48742676,0,5,1
1314272319.90126729,47.37551117,8.55019093,454.45019531,0,5,1
1314272319.94162750,47.37551117,8.55019093,454.41293335,0,5,1
1314272320.00446010,47.37551117,8.55019093,454.38308716,0,5,1
1314272320.05258060,47.37551117,8.55019093,454.79708862,0,5,1
1314272320.10154057,47.37551117,8.55019093,454.76135254,0,5,1
1314272320.15249705,47.37551117,8.55019093,454.72555542,0,5,1
